Flag for Canada Weather past 2 weeks in Gatineau, Quebec, Canada

Now
7 °F

Clear.


Feels Like: 0 °F
Forecast: -3 / 22 °F
Wind: 3 mph from Southeast

Location: Ottawa Int'L. Ont.

Current Time: Jan 29, 2015 at 12:36:06 AM

Latest Report: Jan 29, 2015 at 12:00 AM


Visibility: 15 mi

Pressure: 30.30 "Hg

Humidity: 56%

Dew point: -6 °F

Location of GatineauLocation

Historic Weather in Gatineau — Graph

°F

Gatineau temperature yesterday

Maximum temperature yesterday: 18 °F (at 4:00 PM)
Minimum temperature yesterday: 0 °F (at 6:00 AM)
Average temperature yesterday: 7 °F

Past Weeks' High & Low Weather Summary

 TemperatureHumidityPressure
High39 °F (Jan 18, 2:00 PM)100% (Jan 19, 12:00 AM)30.69 "Hg (Jan 19, 12:00 AM)
Low-15 °F (Jan 14, 4:00 AM)41% (Jan 28, 1:00 PM)29.34 "Hg (Jan 24, 11:00 PM)
Average9 °F72%30.03 "Hg
* Reported Jan 13 11:00 PM — Jan 28 11:00 PM, Gatineau, Weather by CustomWeather, © 2014

Note: Actual official high and low records may vary slightly from our data, if they occured in-between our weather recording intervals... More about our weather records

Advertising

Gatineau weather history for previous 24 hours

 ConditionsComfort  
Time TempWeatherWind HumidityBarometerVisibility
11:00 PM
Jan 28
5 °FClear.7 mph51%30.32 "Hg15 mi
10:00 PM10 °FClear.7 mph44%30.32 "Hg15 mi
9:00 PM9 °FClear.5 mph47%30.31 "Hg15 mi
8:00 PM10 °FClear.3 mph44%30.30 "Hg15 mi
7:00 PM9 °FClear.7 mph51%30.30 "Hg15 mi
6:00 PM12 °FClear.6 mph44%30.29 "Hg15 mi
5:00 PM14 °FSunny.9 mph41%30.29 "Hg15 mi
4:00 PM18 °FPassing clouds.9 mph41%30.27 "Hg15 mi
3:00 PM16 °FPassing clouds.12 mph45%30.26 "Hg15 mi
2:00 PM16 °FPassing clouds.12 mph41%30.24 "Hg15 mi
1:00 PM14 °FPassing clouds.10 mph41%30.24 "Hg15 mi
12:00 PM10 °FPassing clouds.9 mph44%30.25 "Hg15 mi
11:00 AM7 °FPassing clouds.10 mph51%30.27 "Hg15 mi
10:00 AM5 °FPassing clouds.10 mph51%30.25 "Hg15 mi
9:00 AM1 °FPassing clouds.13 mph60%30.24 "Hg15 mi
8:00 AM0 °FPassing clouds.7 mph60%30.22 "Hg15 mi
7:00 AM0 °FPassing clouds.9 mph60%30.19 "Hg15 mi
6:00 AM0 °FClear.12 mph65%30.16 "Hg15 mi
5:00 AM1 °FPassing clouds.12 mph60%30.13 "Hg15 mi
4:00 AM1 °FPassing clouds.12 mph65%30.11 "Hg15 mi
3:00 AM3 °FPassing clouds.13 mph66%30.11 "Hg15 mi
2:00 AM5 °FPassing clouds.15 mph66%30.09 "Hg15 mi
1:00 AM7 °FPassing clouds.15 mph61%30.09 "Hg15 mi
12:00 AM7 °FPassing clouds.14 mph66%30.09 "Hg15 mi
Weather by CustomWeather, © 2014

See weather overviewHow to use our weather pages